Location: Newark
(25.6108°S, 54.5803°W)
Time: 07:58:39
(UTC+00:00)

Courier 1B - Pass Details

Date: 31 October 2020
Orbit: 962 x 1209 km, 28.3° (Epoch: 02 December)

Event Time Altitude Azimuth Distance (km) Brightness Sun altitude
Rises 04:04:39 0° 261° (W) 4,049 - -48.8°
Reaches altitude 10° 04:07:27 10° 259° (W) 3,110 - -48.6°
Maximum altitude 04:15:17 77° 173° (S) 1,241 - -48.1°
Drops below altitude 10° 04:23:12 10° 87° (E) 3,144 - -47.4°
Exits shadow 04:24:42 - 86° (E) 3,646 10.6 -47.3°
Sets 04:26:02 0° 86° (E) 4,095 10.9 -47.2°
